www.pogodaiklimat.ru
ПОГОДА в Форт-Лодердейле
Время
и дата
12:53 15.07
13:53 15.07
14:53 15.07
15:53 15.07
16:53 15.07
17:53 15.07
18:53 15.07
19:53 15.07
20:00 15.07
20:53 15.07
21:53 15.07
22:53 15.07
23:53 15.07
00:53 16.07
01:53 16.07
02:53 16.07
03:53 16.07
04:02 16.07
04:09 16.07
04:53 16.07
05:53 16.07
06:53 16.07
07:53 16.07
08:53 16.07
09:53 16.07
10:53 16.07
11:53 16.07
12:53 16.07
13:53 16.07
14:53 16.07
15:53 16.07
16:53 16.07
17:53 16.07
18:53 16.07
19:37 16.07
19:53 16.07
20:53 16.07
21:53 16.07
22:53 16.07
23:53 16.07
00:53 17.07
01:53 17.07
02:53 17.07
03:53 17.07
04:53 17.07
05:53 17.07
06:53 17.07
07:53 17.07
Ветер
(напр.,м/с)
Видим. Явления Облачность Т
(С)
Тd
(С)
f
(%)
Тe
(С)
Тes
(С)
Комфортность P
(гПа)
Po
(гПа)
Тmin
(С)
Tmax
(С)
R
(мм)
R24
(мм)
S
(см)
ЮВ 5 16 км 5/5 840 м +32.2 +25.6 68 +47 +53 опасность
перегрева
1018.4 1017.7 +29.4 +34.4
ЮВ 5 16 км 5/5 720 м +31.7 +26.1 72 +47 +53 опасность
перегрева
1018.3 1017.3
ЮВ 4 16 км 5/5 900 м +32.8 +25.6 66 +48 +54 опасность
перегрева
1017.3 1016.7
ЮВ 5 16 км 5/5 750 м +32.2 +25.6 68 +47 +51 опасность
перегрева
1016.9 1016.0
В 5 16 км ясно +31.1 +25.6 73 +46 +51 опасность
перегрева
1016.2 1015.3
В 5 16 км 2/2 1800 м +31.1 +25.6 73 +46 +48 опасность
перегрева
1016.3 1015.7
В 5 16 км ясно +30.6 +25.6 75 +45 +46 опасность
перегрева
1016.6 1015.7 +30.6 +32.8
В 4 16 км 8/8 630 м +30.0 +25.6 77 +44 +44 очень
душно
1017.7 1017.0
В 4 16 км 5/5 630 м +30.0 +25.0 75 +43 +43 опасность
перегрева
1017.0
В 2 16 км 2/2 630 м +30.0 +25.6 77 +44 +44 опасность
перегрева
1018.2 1017.3
В 4 16 км 5/5 900 м +30.0 +25.6 77 +44 +44 опасность
перегрева
1018.0 1017.3
ЮВ 3 16 км 5/5 900 м +30.0 +25.6 77 +44 +44 опасность
перегрева
1018.4 1017.7
В 3 16 км 5/5 1950 м +28.9 +26.7 88 +45 +45 опасность
перегрева
1017.7 1017.0
ЮВ 4 16 км 5/5 900 м +29.4 +25.6 80 +43 +43 опасность
перегрева
1017.2 1016.3 +28.9 +30.6
ЮВ 3 16 км 2/2 660 м +29.4 +25.6 80 +43 +43 опасность
перегрева
1016.8 1016.0
ЮВ 3 16 км 2/2 690 м +29.4 +25.0 77 +42 +42 опасность
перегрева
1016.4 1015.7
Ю 2 16 км 5/5 720 м +28.9 +25.6 82 +43 +43 опасность
перегрева
1016.4 1015.7
Ю 2 16 км 8/8 690 м +29.4 +25.6 80 +43 +43 очень
душно
1015.7
ЮВ 2 16 км 8/8 690 м +29.4 +25.6 80 +43 +43 очень
душно
1015.7
ЮВ 3 16 км 8/8 960 м +29.4 +25.0 77 +42 +42 очень
душно
1016.9 1016.0
штиль 0 16 км 2/2 780 м +28.3 +25.0 82 +41 +41 опасность
перегрева
1017.4 1016.7
ЮВ 3 16 км 2/2 900 м +29.4 +25.0 77 +42 +42 опасность
перегрева
1017.9 1017.0 +28.3 +30.0 0.3 0.3
ЮВ 5 16 км 5/5 780 м +31.1 +25.0 70 +45 +45 опасность
перегрева
1018.5 1017.7
В 5 16 км 5/5 900 м +31.1 +23.3 63 +42 +43 опасность
перегрева
1018.8 1018.0
В 5 16 км 2/2 990 м +32.8 +23.3 57 +43 +48 опасность
перегрева
1019.0 1018.4
В 5 16 км 5/5 990 м +33.3 +23.9 58 +45 +49 опасность
перегрева
1018.9 1018.0
В 5
{8}
16 км 5/5 1020 м +33.3 +23.3 56 +44 +49 опасность
перегрева
1018.7 1018.0
В 4 16 км 2/2 1020 м +32.8 +23.9 60 +45 +56 опасность
перегрева
1018.5 1017.7 +29.4 +33.9
В 7
{9}
16 км 5/5 990 м +33.3 +22.8 54 +43 +46 опасность
перегрева
1017.6 1016.7
ЮВ 5 16 км ясно +33.9 +22.8 52 +44 +53 опасность
перегрева
1017.0 1016.3
В 5 16 км 5/5 840 м +32.8 +23.9 60 +45 +48 опасность
перегрева
1016.8 1016.0
В 7 16 км ясно +32.2 +24.4 63 +44 +47 опасность
перегрева
1016.7 1016.0
В 6 16 км 5/5 810 м +31.7 +25.0 68 +45 +46 опасность
перегрева
1017.4 1016.7
В 5 16 км 2/2 750 м +30.6 +25.0 72 +44 +44 опасность
перегрева
1018.3 1017.3 +30.6 +34.4
В 4 16 км 8/8 750 м +30.0 +25.0 75 +43 +43 очень
душно
1017.7
ЮВ 3 16 км 5/5 750 м +30.0 +25.0 75 +43 +43 опасность
перегрева
1018.6 1017.7
В 3 16 км ясно +30.0 +25.0 75 +43 +43 опасность
перегрева
1018.8 1018.0
В 4 16 км ясно +29.4 +24.4 75 +42 +42 опасность
перегрева
1018.3 1017.7
ЮВ 4 16 км ясно +29.4 +24.4 75 +42 +42 опасность
перегрева
1018.4 1017.7
В 3 16 км ясно +29.4 +25.0 77 +42 +42 опасность
перегрева
1017.7 1017.0
В 4 16 км ясно +29.4 +25.0 77 +42 +42 опасность
перегрева
1017.1 1016.3 +29.4 +30.6
ЮВ 4 16 км ясно +29.4 +23.9 72 +40 +40 очень
душно
1016.4 1015.7
В 4 16 км ясно +29.4 +23.9 72 +40 +40 очень
душно
1016.5 1015.7
В 2 16 км 2/2 870 м +28.3 +23.3 74 +38 +38 очень
душно
1016.6 1015.7
штиль 0 16 км ясно +28.3 +23.3 74 +38 +38 очень
душно
1017.0 1016.3
штиль 0 16 км 5/5 810 м +27.8 +23.9 79 +38 +38 очень
душно
1017.8 1017.0
штиль 0 16 км ясно +30.0 +25.0 75 +43 +44 опасность
перегрева
1018.3 1017.3 +27.2 +30.0
В 5 16 км 5/5 720 м +31.1 +25.6 73 +46 +46 опасность
перегрева
1018.6 1017.7
Местоположение метеостанции Fort Lauderdale Executive Airport: широта 26.2000 долгота -80.1833 высота над уровнем моря 4 м.
В архиве по умолчанию представлена погода в Форт-Лодердейле за последние 1-2 суток. Обновление информации о фактической погоде в базе происходит ежечасно! Архивные данные за месяц целиком и за предыдущие месяцы Вы можете получить, выбрав интересующий диапазон дат из раскрывающегося списка и нажав кнопку "Ввод!".
Внимание! Архив погоды МЕТАР в базе сайта по станциям, не включенным в климатический монитор, хранится не более 60 дней. Нет смысла пытаться выбрать более раннюю дату.
*Определитесь, кто Вы:
Внимание! Время в таблицах - местное (без учета летнего времени). Для получения всемирного времени необходимо вычесть поправку, которая равна -5 ч.
Смотрите также архив погоды в соседних городах и на ближайших метеорологических станциях:
Партнеры нашего сайта:      
Пояснения к столбцам:
  • Ветер - указаны скорость ветра в м/с - средняя за 10 мин, порывы в срок и между сроками (в фигурных скобках) и направление, откуда дует ветер: С - северный,
  • СВ - северо-восточный, В - восточный, ЮВ - юго-восточный, Ю - южный, ЮЗ - юго-западный, З - западный, СЗ - северо-западный.
  • Видимость - горизонтальная дальность видимости в метрах или километрах. При видимости от 1 до 10 км при отсутствии осадков обычно наблюдается дымка, при ухудшении видимости до 1 км и менее - туман. В сухую погоду видимость может ухудшаться дымом, пылью или мглою.
  • Явления - указаны атмосферные явления, наблюдавшиеся в срок или в последний час перед сроком; фигурными скобками обозначены явления, наблюдавшиеся между сроками (за 1-3 часа до срока); квадратными скобками обозначены град или гололедные отложения с указанием их диаметра в мм.
  • Облачность - указаны через наклонную черту общая и нижняя облачность в баллах и высота нижней границы облаков в метрах; квадратными скобками обозначены формы облаков: Ci - перистые, Cs - перисто-слоистые, Cc - перисто-кучевые, Ac - высококучевые, As - высокослоистые, Sc - слоисто-кучевые, Ns - слоисто-дождевые, Cu - кучевые, Cb - кучево-дождевые. Подробнее классификацию облаков см. в Атласе облаков (PDF).
  • T - Температура воздуха - температура, измеренная на высоте 2 м над землей.
  • Td - Температура точки росы - температура, при понижении до которой содержащийся в воздухе водяной пар достигнет насыщения.
  • f - Относительная влажность воздуха - влажноcть воздуха, измеренная на высоте 2 м над землей.
  • Te - Эффективная температура - температура, которую ощущает одетый по сезону человек в тени. Характеристика душности погоды. При расчете учитывается влияние влажности воздуха и скорости ветра на теплоощущения человека.
  • Tes - Эффективная температура на солнце - температура, которую ощущает человек, с поправкой на солнечный нагрев. Характеристика знойности погоды. Зависит от высоты солнца над горизонтом, облачности и скорости ветра. Ночью, в пасмурную погоду, а также при ветре 12 м/с и более поправка равна нулю.
  • P - Атмосферное давление - приведенное к уровню моря атмосферное давление.
  • Po - Атмосферное давление - измеренное на уровне метеостанции атмосферное давление.
  • Tmin - Минимальная температура - минимум температуры воздуха на высоте 2 м над землей.
  • Tmax - Максимальная температура - максимум температуры воздуха на высоте 2 м над землей.
  • R - Количество осадков - Количество выпавших осадков за период времени, мм. При наведении курсора мыши на число - период времени, за который выпало указанное количество осадков.
  • R24 - Количество осадков - Количество выпавших осадков за 24 часа, мм.
  • S - Снежный покров - Высота снежного покрова, см. При наведении курсора мыши на число - состояние снежного покрова и степень покрытия местности в баллах.